RH
2 2 2 2 2 2 2 2 3 3 2 3 3 5 9 15 21 20 21 19 14 10 9 9 8 8 9 12 11 10 21 21 15 38 56 45 43 47 48 45 39 50 54 44 45 44 40 33 24 19 17 16 15 15 15 16 15 13 12 10 9 9 8 7 7 7 7 7 6 6 6 5 5 5 6 7 10 13 15 19 26 29 30 28 35 45 47 50 50 40 28 21 14 10 8 5 5
2 2 2 2 2 2 3 2 2 3 2 4 4 5 12 18 21 20 19 18 18 12 7 6 7 9 8 10 11 9 14 21 24 29 32 38 46 48 58 57 45 52 49 43 45 41 37 30 23 19 18 18 17 18 18 19 18 16 14 12 10 9 8 7 7 7 7 7 7 6 6 6 5 5 5 6 10 14 16 19 26 32 35 32 34 43 49 53 58 52 36 23 16 10 8 6 4
2 2 2 2 3 2 2 2 3 4 3 4 6 14 21 21 19 21 22 18 17 8 4 6 7 9 11 12 11 10 11 16 26 30 30 35 38 37 52 58 48 50 47 44 43 40 36 30 26 22 20 19 19 20 21 21 20 18 15 14 12 9 8 8 7 7 7 7 7 7 6 6 5 5 5 5 9 13 15 18 25 33 39 40 38 41 49 58 65 65 51 31 20 11 8 7 5
2 2 3 2 3 3 3 3 3 3 4 4 11 24 27 25 23 30 35 25 20 10 6 8 7 8 7 12 13 12 16 21 23 27 33 32 31 32 39 45 47 49 47 45 43 39 35 31 27 23 23 22 23 22 22 23 22 19 16 14 12 11 9 8 8 7 7 7 7 7 6 6 5 5 5 5 7 10 12 15 20 32 40 45 45 41 48 62 69 74 69 48 28 14 9 6 5
2 2 2 3 3 3 3 3 4 3 4 4 15 35 37 35 34 38 38 28 29 21 12 9 8 11 10 14 15 15 23 37 41 38 39 36 33 33 36 37 38 41 42 42 38 35 32 29 27 26 28 27 26 25 24 23 22 20 17 14 12 12 10 8 8 8 8 7 7 7 7 6 6 5 5 5 7 9 10 12 17 30 37 44 51 45 43 56 69 76 80 68 43 21 10 7 5
2 3 2 3 3 3 4 3 5 3 6 4 10 34 41 39 36 39 40 34 36 25 14 13 10 12 18 21 21 25 29 38 46 48 47 41 39 38 37 32 29 34 38 37 33 32 31 30 31 31 31 30 28 25 24 22 21 19 16 15 14 12 10 9 8 9 8 8 7 7 7 6 6 5 5 4 7 9 11 12 15 25 32 42 54 53 46 48 62 73 80 80 62 34 14 8 6
2 3 3 3 3 3 4 3 5 3 9 12 11 27 36 32 25 27 36 38 35 25 19 12 8 11 21 29 29 32 34 35 36 39 45 43 44 43 37 32 32 36 36 34 33 34 34 36 36 34 32 31 29 26 24 21 20 18 16 16 14 13 11 9 9 9 9 9 9 7 7 6 6 5 4 4 6 9 12 15 16 22 32 43 52 55 53 49 54 64 75 82 75 53 24 9 7
2 3 3 3 4 4 4 4 5 4 15 28 26 26 32 27 16 17 26 27 27 30 26 12 8 12 22 39 43 39 35 36 35 30 33 36 41 43 38 34 33 35 35 34 36 37 39 40 38 37 34 32 31 27 23 19 18 16 16 16 14 14 10 9 9 9 10 10 9 8 8 6 6 5 4 4 6 9 13 17 19 21 30 43 53 56 57 53 51 56 68 78 80 69 40 15 7
2 3 3 3 4 3 4 5 5 5 13 31 32 30 33 24 13 14 16 16 23 25 21 11 12 15 20 39 46 42 35 31 34 36 36 36 35 34 34 33 32 32 36 40 39 40 41 41 40 38 35 33 30 25 21 18 16 16 15 15 14 13 11 9 8 8 9 9 9 9 8 7 6 5 4 4 5 9 14 20 25 25 26 36 48 53 54 54 53 52 60 71 79 79 59 27 10
3 3 4 4 5 4 6 4 9 12 11 22 31 35 35 23 15 13 10 13 17 15 19 13 10 23 26 34 40 41 41 35 33 36 38 37 36 33 33 35 33 31 36 44 42 41 43 42 40 38 36 33 28 22 18 17 16 15 15 15 14 12 11 9 8 8 8 8 9 9 9 8 6 5 4 4 5 9 13 19 27 31 31 33 40 45 47 49 51 52 54 62 73 79 73 45 17
4 4 4 5 5 5 6 5 16 26 24 26 29 36 34 24 14 11 12 12 14 15 34 33 16 27 32 37 49 48 44 42 40 34 32 37 43 39 36 38 36 34 38 44 45 44 43 41 40 39 37 32 25 20 17 17 15 14 14 14 14 14 12 10 9 9 9 9 10 10 9 8 6 6 5 4 6 10 13 16 22 28 31 33 35 34 33 37 43 49 51 56 66 75 79 63 32
5 5 5 5 6 5 8 13 25 31 33 35 33 39 40 32 17 13 17 10 14 16 34 44 21 17 19 34 53 54 49 50 59 51 38 41 47 40 33 41 44 42 43 45 48 46 43 42 42 39 35 29 21 18 18 17 15 15 14 14 14 15 16 14 13 12 12 10 10 12 10 10 9 8 7 7 8 11 13 11 15 19 20 22 23 20 17 20 29 41 49 52 59 69 78 74 49
6 8 6 6 7 6 9 15 28 33 36 38 39 45 41 39 27 20 18 7 15 24 49 53 22 12 9 25 38 43 54 54 66 66 57 52 48 43 38 44 47 44 43 45 50 49 47 43 41 38 32 26 20 17 18 18 18 17 15 15 13 13 16 17 16 17 18 16 14 15 15 17 21 22 19 15 11 12 13 10 10 11 12 13 13 13 11 14 21 32 44 50 56 64 73 74 64
8 9 8 8 7 8 9 11 30 40 41 39 40 45 36 39 34 19 14 11 11 17 53 48 19 25 14 19 25 36 67 66 61 61 68 68 57 53 47 46 46 45 45 47 50 47 45 42 39 35 30 24 20 20 20 20 19 18 16 15 14 13 14 15 15 16 20 21 19 25 26 27 35 37 33 27 18 13 13 12 10 9 9 10 10 11 13 18 25 32 40 48 53 60 68 70 68
9 11 9 10 8 9 10 13 36 41 41 42 39 42 33 35 34 18 12 15 11 10 46 38 16 34 22 16 19 34 70 72 62 58 66 72 66 65 59 53 48 45 46 47 46 41 40 40 37 31 28 25 21 21 21 22 21 19 18 16 17 15 15 16 15 14 15 17 22 33 34 33 39 40 40 34 22 16 15 12 12 12 11 11 10 10 12 19 32 40 41 46 53 56 63 64 64
11 12 10 11 9 10 13 19 40 41 40 44 40 39 32 39 37 22 14 11 12 15 44 41 19 29 22 23 35 43 53 53 60 59 57 59 62 67 60 53 46 44 44 40 37 36 38 38 35 30 28 27 23 24 23 22 23 24 24 21 21 18 18 17 15 14 11 13 24 35 35 36 41 41 41 36 29 25 21 17 16 16 16 16 15 14 15 19 34 45 43 46 53 56 60 58 56
12 13 11 11 10 13 16 21 40 45 44 44 45 40 31 43 37 18 15 11 15 15 26 31 21 22 22 41 66 69 55 47 57 60 58 58 61 62 54 49 47 49 43 34 32 34 36 34 33 30 29 27 24 27 28 27 27 29 30 28 24 21 21 19 17 16 14 17 25 32 36 40 42 41 45 45 41 37 34 31 27 26 26 26 24 23 22 24 35 44 44 47 52 55 59 58 53
13 14 12 12 13 14 18 25 38 45 47 47 49 44 34 40 31 18 17 13 17 18 18 18 15 16 22 44 65 67 60 56 56 54 62 69 65 55 50 52 50 49 43 38 39 37 34 31 29 28 26 25 24 29 31 30 29 31 35 37 32 27 26 24 21 19 17 21 29 40 50 54 46 41 48 54 51 48 47 42 38 36 36 35 33 31 31 31 37 40 40 48 55 58 60 60 58
16 15 13 14 15 14 21 36 43 42 47 49 50 45 30 28 25 22 21 15 16 19 21 17 9 12 19 36 51 57 57 55 50 42 54 70 64 50 48 50 45 42 39 37 38 38 35 29 25 23 24 25 26 30 28 27 29 32 36 38 36 31 28 27 26 31 34 33 40 54 62 60 50 47 56 59 55 53 49 47 50 49 46 43 38 37 39 41 40 38 38 45 60 68 68 67 65
17 16 16 16 17 20 29 49 56 47 45 44 48 39 18 21 23 20 21 19 20 18 23 22 8 10 18 25 39 48 47 41 36 36 51 64 56 50 55 54 45 38 32 28 27 29 30 26 24 23 24 24 22 23 22 25 32 33 30 30 32 33 32 28 26 36 49 51 50 53 56 56 55 59 61 53 49 50 50 55 60 56 53 51 44 40 42 47 48 44 44 45 54 63 71 80 77
18 17 17 17 25 36 42 56 58 41 33 31 37 31 18 27 23 17 20 19 22 19 33 42 16 10 25 29 30 32 36 32 25 34 54 65 58 57 64 58 45 37 32 27 23 20 21 26 28 24 22 20 17 19 21 27 32 28 25 27 31 33 30 28 30 38 50 57 58 55 55 64 68 67 58 45 44 52 56 61 62 56 55 54 46 41 40 43 47 47 48 47 48 48 58 79 88
19 18 18 18 24 33 36 42 36 19 17 20 25 26 24 28 20 18 22 21 25 20 40 56 22 11 35 43 35 27 28 27 30 50 64 68 68 70 70 58 43 39 34 27 25 21 20 26 28 23 20 20 19 22 27 30 29 22 23 28 28 30 30 33 45 53 52 51 60 65 59 62 66 60 52 47 50 58 62 64 59 50 48 46 40 36 35 36 39 42 42 43 43 43 47 60 77
18 18 18 19 20 22 23 23 20 13 15 19 22 26 24 22 21 24 24 22 26 19 28 38 19 22 41 43 35 26 27 35 56 80 85 83 85 82 71 60 51 41 33 28 26 25 24 26 25 24 23 21 21 23 28 28 26 22 22 26 26 29 30 30 42 52 52 49 54 58 53 52 50 46 53 59 62 64 63 59 49 42 39 36 34 31 28 29 30 34 37 38 39 40 43 48 58
17 18 19 19 21 20 20 17 16 16 16 19 21 23 21 21 23 24 23 22 24 21 25 29 25 33 46 51 45 36 37 55 83 95 96 94 86 74 62 61 57 42 36 31 26 26 26 25 22 28 30 27 26 24 24 24 25 24 21 23 24 26 27 28 42 52 55 56 50 43 45 44 39 44 59 65 64 61 55 49 43 40 34 30 39 42 36 33 29 26 29 33 33 31 33 39 47
14 17 18 19 19 18 19 18 18 18 16 18 19 20 20 22 23 22 22 23 24 22 26 34 31 27 35 46 49 48 41 52 86 93 84 81 68 61 63 64 57 45 39 29 25 28 26 23 22 27 29 27 25 21 22 23 22 22 20 21 25 34 40 42 48 54 56 60 53 41 41 38 34 44 54 53 48 48 52 53 46 37 35 41 53 56 50 46 42 36 31 28 24 20 20 25 35
13 14 15 17 18 17 18 18 18 18 16 17 18 19 20 20 21 22 21 23 26 24 26 31 32 30 29 28 30 39 33 35 76 89 67 64 64 66 71 66 55 44 35 28 30 33 29 27 26 24 23 20 18 15 17 19 17 17 17 19 25 35 47 50 49 54 56 56 49 38 37 38 35 36 38 39 37 38 47 53 49 39 39 50 53 51 47 45 47 45 38 36 30 23 18 16 21
11 12 13 15 16 17 17 18 19 17 17 18 18 18 18 21 19 21 22 21 22 21 22 24 29 32 26 25 22 25 28 28 65 85 63 65 78 75 68 56 46 38 33 33 34 35 34 31 28 25 22 18 15 12 12 13 14 14 12 13 16 21 34 40 41 53 56 46 39 33 35 36 30 26 26 29 31 31 36 40 44 41 40 44 43 44 48 47 45 42 42 45 44 41 32 24 23
10 11 13 14 15 17 17 17 17 17 18 17 17 18 17 19 17 19 21 21 26 27 27 26 32 34 23 24 22 26 37 35 62 83 67 73 81 70 58 47 41 34 31 35 33 33 34 30 29 28 24 19 14 11 10 12 12 11 10 10 9 9 17 22 25 39 46 43 39 33 32 27 20 20 18 21 26 30 30 25 26 29 30 32 33 41 51 57 58 51 52 54 51 53 50 50 48
10 11 11 12 14 16 15 16 17 17 18 16 17 17 16 17 19 22 18 21 31 31 28 24 31 40 34 30 25 28 37 44 72 78 62 72 75 67 61 49 38 30 31 37 37 38 36 32 31 29 24 20 15 11 9 11 11 9 9 9 9 7 8 16 22 26 28 33 34 26 23 20 16 17 15 15 17 22 22 18 23 27 26 22 27 53 67 76 87 75 62 59 59 62 63 67 64
10 9 10 12 11 12 14 14 14 14 15 16 16 14 18 18 14 17 19 26 34 29 29 33 39 42 36 32 28 27 37 66 87 66 55 75 78 73 63 45 33 32 38 42 41 41 38 33 30 27 24 19 16 13 9 10 9 9 9 8 10 7 9 18 25 28 27 23 22 20 16 14 14 14 15 15 14 18 17 18 29 31 31 26 33 64 77 78 90 78 55 49 59 69 70 72 71
9 8 10 9 8 22 32 19 13 22 19 13 15 15 26 40 43 37 25 26 36 36 39 45 47 40 31 34 40 41 54 87 94 58 50 66 66 64 54 40 36 37 43 44 40 37 32 30 28 24 21 17 17 14 10 11 9 9 9 9 10 8 10 14 16 22 27 18 14 17 15 13 15 12 12 15 15 17 16 21 32 35 40 41 41 56 64 65 69 62 49 36 40 59 68 70 70
8 8 11 12 18 43 56 38 26 35 31 16 12 13 27 55 82 75 36 22 38 44 48 54 54 49 38 41 53 54 60 87 90 60 53 61 62 63 58 49 44 43 47 46 39 33 29 28 24 18 15 14 16 15 12 11 11 10 10 9 10 9 9 11 9 10 13 11 9 12 13 15 18 14 12 15 16 16 16 22 30 35 44 46 39 39 47 59 61 56 54 39 31 45 62 67 62
13 8 16 32 39 46 55 55 48 48 48 36 17 13 34 56 80 83 42 20 36 46 56 62 57 57 53 51 54 52 64 91 86 61 63 73 75 75 71 61 53 50 49 43 37 31 28 23 16 13 11 11 14 17 14 11 12 11 10 10 9 10 10 9 9 8 8 8 8 9 10 12 13 13 12 14 20 21 20 24 27 28 35 40 33 25 31 47 51 49 54 49 37 40 51 59 58
50 34 37 54 55 47 52 64 67 63 63 58 30 18 47 65 71 78 50 28 42 53 58 58 51 58 61 50 44 45 63 81 67 60 73 76 76 79 74 61 51 48 44 38 33 27 23 18 12 11 11 14 16 16 13 12 12 11 10 10 9 9 10 10 10 9 9 8 8 8 9 9 9 10 10 10 14 16 15 19 23 21 23 27 22 16 20 33 39 40 50 55 45 41 45 52 63
75 65 62 61 60 60 61 67 77 75 65 62 43 28 50 62 57 67 57 36 46 60 59 55 53 58 56 47 45 48 54 57 54 66 80 71 67 72 70 60 46 40 39 35 28 22 18 13 11 11 11 13 14 13 12 12 12 11 11 10 9 9 8 9 9 9 9 9 9 8 8 9 8 9 9 9 9 9 9 10 12 12 12 14 12 12 14 20 28 30 44 58 49 39 39 44 62
65 74 80 73 69 70 67 66 75 77 69 63 48 41 58 61 56 73 74 45 36 54 59 51 52 52 51 52 53 53 53 55 57 66 75 67 61 68 70 61 48 39 36 30 22 17 14 11 11 11 10 11 11 12 12 12 12 11 11 9 9 9 9 9 9 9 9 9 9 8 8 8 8 8 8 9 8 8 9 8 9 9 9 10 10 11 11 12 18 22 36 51 42 34 40 45 55
62 63 70 85 85 74 68 70 73 67 68 75 63 56 64 61 66 82 81 67 49 46 49 44 48 48 45 46 47 57 68 67 58 53 62 59 54 67 70 57 49 39 28 22 17 14 13 12 12 11 11 11 12 13 13 13 14 13 12 10 9 9 9 9 8 9 9 9 9 8 9 8 8 8 8 8 9 8 9 8 9 9 9 10 9 9 11 11 12 15 22 28 27 30 43 48 46
54 39 33 65 88 78 67 70 74 68 60 64 64 70 75 66 77 85 80 94 82 48 38 34 34 39 43 44 45 56 65 65 61 54 57 55 52 66 70 55 44 31 20 18 16 15 15 14 13 12 12 12 12 14 15 16 18 19 17 13 11 10 9 10 9 10 9 9 9 9 9 9 8 8 8 9 8 9 9 9 9 9 9 10 10 10 10 10 10 10 11 14 20 23 29 38 42
32 26 8 29 71 77 68 65 69 77 64 45 42 58 75 75 81 83 78 89 76 43 34 29 20 22 30 39 43 48 51 54 64 64 63 60 49 53 64 55 37 24 20 20 18 18 18 16 15 13 12 14 15 17 19 21 21 23 23 20 16 13 11 12 11 12 12 11 11 11 10 10 10 9 9 9 9 9 9 9 9 9 9 10 10 10 10 10 10 9 9 8 13 14 17 30 39
15 19 8 19 61 75 73 74 67 70 59 40 34 35 51 73 78 71 63 60 48 36 33 25 19 15 16 29 34 34 38 44 54 64 71 64 41 37 56 56 36 25 24 24 24 23 22 21 17 15 16 18 20 23 25 26 26 24 24 23 21 19 17 15 14 13 13 13 13 13 13 13 12 12 11 11 10 10 10 9 10 9 10 10 10 11 10 10 9 8 8 6 8 10 13 25 33
12 16 11 17 56 78 80 79 62 58 59 54 52 34 31 50 50 40 40 36 28 30 29 19 18 17 15 28 30 26 35 46 54 62 67 64 47 39 53 56 37 26 29 32 33 31 27 26 23 22 25 26 26 29 31 31 28 24 22 23 22 21 20 19 18 16 15 15 14 14 15 14 14 14 14 14 12 12 11 10 11 10 10 10 10 10 9 9 8 7 6 5 6 6 7 18 32
14 20 19 14 34 61 76 72 49 47 62 65 56 42 39 42 35 35 47 50 42 37 34 24 19 17 14 22 29 28 33 38 43 49 52 56 49 37 50 60 42 30 35 42 42 37 34 34 34 32 32 33 32 33 36 34 30 25 23 23 22 21 21 20 19 18 17 16 16 15 15 15 15 15 14 14 14 13 13 12 12 11 11 11 10 9 9 8 6 6 6 5 4 4 3 9 20
16 21 25 23 21 28 40 45 38 38 57 71 60 51 58 61 61 70 75 81 78 61 49 40 28 23 19 19 24 29 35 32 26 29 39 52 52 44 56 68 54 41 42 48 49 42 41 48 47 40 38 38 36 36 38 37 32 29 26 24 22 20 20 20 19 19 18 17 17 16 16 14 14 14 14 14 14 14 13 13 12 11 10 10 9 9 8 7 6 5 5 4 4 4 4 4 6
19 23 24 27 29 30 27 26 27 27 37 56 57 47 48 49 58 76 80 88 94 72 58 58 47 38 32 23 21 27 36 29 16 18 31 46 52 50 60 70 67 60 50 45 51 52 54 62 58 48 46 45 39 36 39 41 37 32 29 24 20 19 19 20 19 19 18 17 17 15 14 13 12 12 12 12 12 12 12 11 11 11 10 9 8 7 6 5 6 5 4 4 4 4 3 4 3
24 28 28 24 28 39 42 37 32 28 30 41 46 39 35 34 44 68 79 84 90 75 66 72 66 61 56 42 34 34 36 31 29 37 40 37 37 37 50 65 68 72 66 52 55 64 64 66 66 61 59 56 46 38 41 45 42 36 30 24 19 18 19 19 19 18 17 16 15 14 13 11 11 10 10 9 9 9 9 9 9 8 8 7 6 6 6 5 4 4 4 4 4 4 4 4 3
33 32 33 29 29 39 45 44 37 34 34 38 41 38 42 46 50 68 77 76 79 74 76 82 73 72 71 57 47 42 41 44 45 44 34 28 35 38 49 61 61 72 84 71 62 68 67 67 72 72 71 67 54 44 44 47 47 40 30 23 19 18 18 18 18 16 16 15 13 12 11 9 8 8 7 7 7 7 6 6 6 6 6 6 5 5 4 4 4 4 4 3 4 3 3 4 3
30 29 34 35 34 37 38 34 32 33 32 31 34 37 48 60 67 80 86 83 80 73 82 87 74 74 72 56 49 44 43 45 39 36 30 27 38 42 40 54 69 75 74 67 65 70 68 68 74 75 75 74 62 49 47 50 48 39 27 22 19 18 18 17 16 15 14 13 11 10 8 7 6 6 5 5 5 5 5 5 5 4 4 4 4 4 4 4 3 3 3 3 3 3 3 4 3
37 32 34 35 31 32 33 30 29 36 40 40 41 45 57 70 82 88 84 86 85 74 78 82 75 82 77 60 59 58 51 45 38 40 38 30 35 36 27 38 62 61 47 52 68 73 68 66 71 74 72 74 69 56 51 52 46 34 25 21 19 18 17 16 15 14 12 11 10 9 8 7 5 5 4 4 4 4 4 4 4 4 4 4 4 4 4 4 4 4 4 3 3 4 3 3 4
36 36 36 32 30 36 40 40 43 50 57 60 61 67 76 84 91 89 78 78 81 75 74 74 75 81 73 61 61 56 46 40 38 38 38 39 42 35 25 24 32 33 36 54 67 71 73 70 70 73 73 76 73 59 53 53 42 30 23 21 20 19 19 19 17 14 12 11 10 8 8 7 6 5 4 4 4 4 4 3 3 4 3 3 4 4 4 3 4 4 4 4 4 4 4 3 4
44 45 47 40 35 44 54 62 71 79 83 85 82 82 86 84 85 91 89 78 70 69 68 63 62 59 51 49 45 37 37 37 38 39 41 49 49 37 32 32 29 30 38 51 57 65 76 78 77 76 74 76 73 61 54 48 35 26 24 23 23 22 21 23 22 18 15 13 12 11 10 9 8 6 6 5 5 4 4 4 4 4 4 4 3 4 4 4 4 4 4 5 4 4 4 4 4
75 66 66 64 52 55 72 83 91 97 96 94 89 87 91 88 82 89 92 77 66 69 68 60 56 49 44 45 39 33 36 34 31 33 35 38 39 37 39 43 44 41 38 40 49 62 71 78 82 77 71 71 70 62 50 38 29 26 26 25 26 27 27 29 31 28 22 18 16 15 14 13 13 12 11 10 9 8 7 6 5 5 4 5 4 4 5 4 5 5 5 5 5 5 5 5 5
71 68 75 88 81 75 83 89 92 92 91 90 85 85 89 87 82 83 80 71 67 68 64 59 55 49 44 42 38 33 33 32 30 31 34 32 32 37 40 43 47 45 42 43 50 58 62 68 71 67 65 67 63 54 41 30 27 27 27 29 32 36 37 40 44 41 33 26 22 20 20 21 23 22 20 19 18 16 14 12 10 9 8 6 6 6 5 6 6 7 7 7 7 6 6 6 6
47 57 70 83 84 85 89 93 89 80 78 80 80 81 79 76 77 77 74 69 64 60 55 49 43 39 35 31 29 27 25 28 29 28 32 35 34 35 34 33 34 33 35 38 42 47 51 56 58 56 58 58 50 41 32 27 28 28 28 31 38 44 47 51 56 54 47 38 31 27 27 31 36 35 30 28 28 26 24 21 18 16 14 12 10 8 8 7 8 8 9 9 8 8 8 8 7
21 48 72 70 65 75 84 86 81 70 69 74 76 73 69 71 73 66 64 62 59 63 64 52 44 42 39 33 31 31 29 28 29 28 30 34 35 33 29 26 24 22 23 24 28 36 43 46 47 45 41 41 38 31 27 28 28 28 31 36 43 50 57 64 65 60 54 47 40 35 35 41 45 44 39 35 35 34 31 29 27 25 22 20 17 14 12 10 10 10 10 10 11 10 9 9 9
3 22 50 57 59 68 71 68 68 64 60 62 64 62 63 74 76 70 71 70 70 84 86 69 57 51 47 46 43 39 38 35 33 33 31 32 36 37 35 31 28 24 22 21 22 29 36 36 35 29 23 30 39 35 33 34 30 27 30 36 47 59 66 70 69 65 61 58 53 45 46 51 51 48 44 40 40 40 38 35 34 32 31 28 26 22 19 16 14 12 11 11 11 12 12 11 11
29 19 19 30 37 38 39 43 56 67 64 61 64 68 76 83 80 76 78 77 77 91 98 84 66 53 51 58 54 45 42 40 37 37 35 36 39 41 43 41 37 33 28 24 22 24 29 31 31 23 17 34 57 62 56 45 31 30 33 38 51 63 67 71 75 72 67 69 72 65 60 59 57 55 50 46 46 44 42 39 37 36 34 33 33 31 28 26 22 18 15 14 13 12 13 13 13
68 59 44 45 43 35 34 32 41 61 67 66 66 68 79 85 83 80 80 80 79 86 100 94 72 60 59 60 55 47 44 42 41 42 41 40 40 40 42 44 46 44 36 30 25 23 29 37 42 34 22 29 51 71 81 67 44 36 41 53 65 68 68 76 86 82 71 72 79 78 73 67 64 64 61 56 52 46 42 40 38 38 37 36 35 34 34 32 31 28 24 20 17 14 14 14 14
65 64 61 73 80 76 69 52 48 61 70 74 73 72 76 76 78 83 81 79 77 77 92 94 74 69 73 66 60 56 51 48 47 46 45 41 39 39 41 44 51 53 49 42 33 29 34 45 55 53 43 34 31 41 61 70 65 56 55 69 83 86 84 85 92 92 83 80 79 78 79 75 69 67 64 61 57 51 47 45 43 42 41 40 39 37 37 36 35 34 32 30 27 23 20 17 15
Wind_Speed
32 31 31 30 30 30 29 29 28 28 29 28 23 18 15 12 13 19 26 33 34 33 41 40 32 31 28 28 29 30 30 29 31 31 35 36 35 35 30 27 28 27 27 27 26 26 25 25 24 23 23 23 22 22 22 22 22 23 23 23 23 23 22 21 20 19 18 18 18 18 18 18 17 16 15 15 14 15 15 15 15 15 15 15 16 16 15 14 13 11 10 10 10 11 11 11 10
32 31 31 30 30 29 29 29 27 28 29 25 20 16 8 9 21 25 27 29 31 42 46 35 26 29 29 28 31 33 32 31 31 34 37 37 36 34 28 27 28 27 27 27 26 25 25 25 24 23 23 23 22 22 22 23 23 24 24 24 24 23 22 21 20 20 19 19 19 19 19 19 18 17 16 15 15 15 15 16 16 16 15 14 16 17 16 15 14 12 11 10 10 11 12 12 11
32 31 30 29 29 29 28 28 27 27 26 23 14 9 7 10 23 23 23 26 37 51 41 29 28 29 28 30 35 34 33 32 31 33 36 37 38 35 30 28 27 26 26 26 25 25 26 25 24 23 23 23 22 22 22 23 23 24 25 25 25 24 23 22 21 20 20 19 20 20 20 19 19 18 17 16 15 16 16 16 17 17 16 14 15 17 17 16 15 13 11 10 10 11 13 13 13
33 31 30 29 28 28 29 28 27 26 25 22 7 4 10 13 17 21 27 35 46 48 32 27 31 31 30 32 36 34 31 31 33 35 35 37 37 35 33 32 27 26 26 25 25 25 25 24 23 23 23 23 22 23 23 23 24 25 26 25 25 24 23 23 22 21 21 20 21 21 21 20 19 18 18 17 16 17 17 17 18 18 17 15 15 16 17 17 16 14 11 10 10 11 13 14 14
33 31 31 29 28 30 29 28 26 26 25 20 8 4 16 19 22 32 38 43 47 40 28 29 31 30 31 32 35 33 31 31 33 35 34 36 36 34 34 32 29 27 27 26 25 25 24 24 23 23 22 23 23 23 23 24 25 25 26 25 25 24 23 23 23 22 22 21 22 22 21 21 20 19 18 18 17 17 17 17 18 18 18 16 15 15 17 18 17 15 13 11 10 11 13 14 15
33 31 31 29 29 30 28 27 26 25 22 19 16 10 17 24 33 40 42 46 47 39 31 31 32 31 30 30 33 32 33 33 33 33 32 34 34 33 33 32 30 28 27 25 25 24 24 24 23 22 23 23 23 24 24 25 25 25 26 25 25 24 23 23 23 23 23 22 22 22 22 21 20 19 19 18 18 18 17 17 18 18 18 17 15 15 16 17 18 17 15 13 11 11 13 15 15
32 31 30 29 29 30 29 28 27 24 19 17 18 14 17 30 41 45 44 47 47 41 34 32 33 32 30 30 32 32 33 33 35 34 33 33 32 33 32 31 29 27 26 25 25 24 24 23 23 23 24 24 24 24 24 25 25 26 25 25 25 24 23 23 23 23 23 23 23 23 22 21 20 20 19 19 19 18 18 17 17 17 18 17 16 16 16 16 17 18 17 15 13 11 12 14 15
32 30 29 29 29 30 29 27 26 25 18 16 18 21 26 36 42 45 44 44 43 35 31 31 30 32 31 29 31 32 33 34 35 36 37 35 32 31 30 29 29 28 26 26 25 24 24 24 24 24 24 24 24 25 25 26 26 26 26 25 24 24 23 23 23 23 23 24 24 23 22 22 21 21 20 20 19 18 18 17 16 16 17 18 18 17 16 16 16 18 18 17 15 13 12 13 15
30 29 29 28 29 29 28 26 24 23 19 19 17 21 32 39 45 50 43 38 37 32 32 32 28 32 32 29 31 32 33 35 35 37 37 35 33 31 29 28 28 27 26 25 25 25 25 24 24 25 25 25 25 26 26 26 27 27 26 25 24 23 23 23 23 24 24 24 24 23 23 22 21 21 21 20 19 18 18 17 16 16 16 17 17 18 17 17 16 17 19 19 17 15 13 14 15
29 29 28 28 28 28 27 25 21 20 18 15 14 21 34 43 48 50 43 34 34 34 35 36 31 31 33 32 34 34 34 35 37 38 37 35 33 30 28 27 27 27 26 25 25 25 25 25 25 25 26 26 26 26 26 26 27 27 26 25 25 24 24 24 24 24 24 25 25 24 23 23 22 21 21 20 19 18 18 18 17 16 16 16 16 17 18 18 17 17 19 20 19 17 15 14 15
27 27 27 27 26 27 25 21 18 11 9 7 17 28 36 46 49 45 41 34 33 34 33 35 34 32 32 32 33 34 34 34 37 41 39 34 29 27 27 27 27 26 26 25 26 25 25 25 25 26 26 26 26 26 26 27 27 27 26 25 25 24 24 24 25 25 25 25 25 25 24 23 22 21 20 19 19 18 18 18 17 17 16 16 16 17 18 18 19 18 19 20 20 19 17 16 15
25 25 26 26 25 25 22 19 13 5 6 10 26 34 36 45 47 37 34 33 31 32 31 34 34 33 33 33 32 31 31 30 30 35 35 33 30 28 28 26 26 26 26 25 26 26 26 26 27 27 27 27 26 26 26 27 27 27 26 25 25 25 25 25 25 25 25 26 26 25 24 23 22 20 20 19 18 18 18 17 17 18 18 18 17 17 18 18 20 20 19 20 21 21 19 17 16
23 22 24 25 25 24 22 20 12 11 13 16 26 30 34 40 40 31 28 32 30 26 25 31 33 32 35 34 33 30 30 28 27 28 27 29 29 28 28 27 27 27 27 26 26 26 26 27 28 28 27 26 26 26 26 26 26 25 25 25 25 25 25 25 25 26 26 26 26 26 25 23 21 19 19 18 18 18 18 18 18 18 19 19 18 18 18 18 19 20 21 20 21 21 21 19 17
22 21 24 25 26 24 24 21 13 17 17 18 27 26 34 36 37 35 26 27 30 26 23 32 35 31 34 35 35 32 28 29 30 30 27 26 26 27 28 29 29 28 28 27 27 27 27 28 27 27 27 26 26 25 26 26 25 25 25 24 25 25 25 26 25 26 26 26 27 27 25 22 21 19 18 18 18 18 19 19 19 19 19 20 19 19 18 18 19 20 21 21 21 22 22 21 19
20 20 24 24 25 23 23 21 17 21 16 20 30 29 38 37 41 43 27 24 28 26 22 32 38 31 33 35 36 34 30 30 30 31 29 26 24 24 26 28 29 29 29 28 28 28 27 27 26 27 26 26 26 26 26 25 25 25 24 24 24 25 26 26 26 26 27 27 28 27 24 22 21 18 17 18 18 18 19 20 20 20 20 20 20 20 19 19 19 21 22 21 21 22 22 21 20
18 21 24 23 24 22 21 19 15 18 16 23 28 30 39 35 40 42 26 25 28 25 22 32 37 30 33 35 35 35 34 32 30 31 33 32 28 26 27 27 29 29 29 28 28 27 27 26 25 26 25 25 26 26 26 25 25 24 24 24 24 25 25 26 25 26 27 27 28 26 23 22 21 18 17 17 17 18 19 20 20 20 20 20 20 20 20 19 19 20 21 21 20 21 22 22 21
18 20 22 22 23 21 19 19 12 14 16 20 25 31 38 37 41 39 28 26 25 27 30 35 36 32 33 31 30 29 31 32 31 32 33 35 32 30 29 29 30 27 27 27 27 27 26 27 25 24 25 26 26 26 26 25 24 24 24 25 25 25 24 24 24 26 27 27 28 25 22 21 21 19 17 17 18 18 19 20 20 20 20 19 19 20 20 19 18 19 20 20 20 21 22 22 21
19 19 20 21 21 20 19 14 9 16 19 15 19 30 39 38 35 33 31 27 24 26 32 38 37 35 35 30 28 27 28 29 30 32 32 32 31 29 29 29 29 26 25 25 25 26 26 27 25 25 26 27 27 26 25 24 24 24 24 24 25 24 23 24 24 26 27 28 27 23 21 21 20 19 17 16 18 18 19 20 20 20 19 18 19 19 20 19 18 18 19 20 20 21 22 23 21
19 19 20 20 19 20 16 9 13 25 28 27 27 31 36 31 23 26 29 24 24 25 29 39 38 35 37 32 29 27 27 29 31 33 34 34 30 28 28 29 30 27 26 25 25 25 25 27 27 27 27 27 26 26 26 25 24 23 23 24 24 24 23 24 24 26 26 26 26 22 20 21 20 19 17 16 16 17 18 18 19 20 19 18 18 19 19 19 18 18 19 20 20 20 20 22 22
18 19 20 17 16 16 13 13 27 38 37 35 36 35 34 28 27 30 28 23 23 25 25 35 39 34 34 34 31 28 28 31 33 34 36 35 30 28 28 28 29 28 28 28 27 26 26 27 27 28 28 28 27 27 27 26 24 23 23 24 24 24 23 24 25 26 25 23 24 23 21 21 21 21 18 16 16 17 18 18 18 18 17 17 18 19 19 18 18 18 18 19 20 20 18 19 21
18 19 19 16 15 16 17 23 32 33 31 31 31 33 30 27 34 30 25 25 23 24 22 29 38 32 30 35 35 32 31 33 35 36 37 32 27 27 27 27 28 28 28 27 28 27 27 27 27 27 27 28 28 28 27 26 25 24 24 24 24 24 24 25 26 27 25 23 24 23 22 20 19 18 16 16 16 17 17 17 16 16 16 17 18 19 19 18 18 17 17 18 19 19 19 19 19
19 19 19 18 20 23 24 30 35 29 25 25 24 28 28 29 35 28 25 26 22 26 23 26 34 30 29 33 34 33 34 36 37 37 36 30 26 26 27 26 26 25 25 25 26 27 27 27 28 27 27 27 27 27 27 26 25 25 24 24 24 24 25 26 27 25 24 24 23 21 20 20 18 16 15 15 17 17 17 16 15 15 16 16 17 19 19 19 19 19 19 19 19 19 19 20 20
21 20 20 19 22 26 27 31 33 29 23 22 23 26 29 30 29 26 28 26 23 31 29 29 36 32 28 29 31 32 33 37 38 38 34 27 25 25 25 25 23 23 24 24 25 25 26 27 27 26 26 25 25 26 27 26 26 25 25 25 25 24 25 27 27 27 25 24 23 21 20 19 18 16 16 16 16 16 16 15 13 14 15 15 17 19 20 20 21 22 22 22 21 20 20 20 21
22 20 21 21 24 27 28 30 28 25 22 21 23 25 27 26 24 27 28 24 28 34 31 31 37 34 25 23 26 29 30 33 36 37 31 26 25 25 24 23 22 21 22 22 23 24 25 26 26 24 24 24 24 25 26 27 26 26 25 25 25 25 25 26 27 28 26 25 24 22 20 18 16 15 15 15 15 15 14 12 12 13 14 14 15 17 18 20 21 24 25 24 23 22 21 21 21
22 21 22 25 26 27 28 28 25 24 23 20 21 23 23 23 23 26 24 24 31 34 32 32 34 33 26 22 24 26 27 30 33 34 30 28 26 24 23 21 21 20 20 22 22 22 23 25 25 24 23 23 24 25 25 26 27 26 25 25 25 25 25 25 25 26 25 24 23 22 20 18 16 15 14 15 16 15 12 11 13 14 13 13 14 15 16 17 19 23 25 25 24 23 23 22 21
24 24 24 26 26 25 25 25 25 25 22 19 21 21 21 23 23 23 23 27 33 33 31 29 28 28 28 27 27 26 26 28 28 28 25 24 23 22 22 22 22 21 22 22 20 20 21 23 24 24 23 23 24 25 26 26 27 26 24 24 23 24 24 24 24 23 23 22 22 21 20 17 15 15 15 15 16 15 13 12 13 14 13 14 15 15 15 16 17 20 23 23 23 23 24 24 22
25 24 23 25 25 25 24 23 25 25 22 21 21 20 22 23 19 19 26 30 33 32 30 27 27 27 27 27 28 28 28 28 27 25 18 17 20 21 22 23 23 22 21 20 19 19 20 21 22 23 24 24 24 26 26 26 27 26 25 23 22 22 22 23 23 22 21 21 21 21 19 16 14 14 15 15 16 16 15 14 14 13 14 15 16 15 15 15 17 19 21 20 20 21 23 23 23
26 22 20 23 24 25 24 24 25 24 24 24 22 21 24 22 17 21 29 31 30 29 26 26 27 26 25 27 27 26 26 27 31 28 16 15 20 21 23 23 22 21 20 19 19 19 20 21 21 23 24 25 25 25 26 26 26 26 24 23 23 21 21 22 22 22 20 19 20 20 19 16 14 14 15 15 16 16 16 16 16 15 15 16 18 17 15 16 18 17 18 18 18 19 20 20 21
23 21 21 22 23 24 25 24 25 25 25 26 24 23 26 23 20 25 31 30 29 27 25 26 26 23 23 26 25 24 25 26 30 25 14 15 19 20 21 20 19 20 19 19 20 20 21 22 22 23 24 24 25 24 24 24 25 25 24 23 23 22 21 22 21 20 20 19 18 18 18 17 15 15 16 16 17 17 17 17 18 17 17 18 18 18 16 17 18 15 16 17 16 19 19 19 19
20 20 20 21 22 22 23 25 25 24 25 29 27 24 23 23 25 30 33 31 30 28 25 25 23 20 20 21 22 24 25 24 28 19 11 15 17 19 19 19 19 19 19 21 22 22 22 23 24 24 24 24 24 24 23 23 23 24 24 24 23 22 23 24 21 19 19 18 18 18 18 17 16 17 18 18 18 17 17 18 19 18 18 18 17 17 16 17 16 13 16 17 16 18 19 18 19
17 17 16 18 16 14 20 27 24 17 25 33 28 21 17 16 20 25 30 28 26 27 24 21 20 19 17 16 17 21 21 24 26 15 9 13 16 18 20 20 20 19 20 22 22 23 24 24 25 25 25 25 24 23 23 22 22 22 23 23 24 23 24 26 24 22 21 19 18 18 18 18 17 17 19 20 19 18 18 19 20 19 18 18 17 17 17 18 18 17 18 17 17 18 19 19 19
15 14 13 10 2 4 19 27 21 12 23 32 24 18 13 13 13 15 25 24 20 24 24 20 18 17 16 14 13 17 22 26 26 13 7 12 17 19 21 20 20 21 21 23 23 24 24 25 26 25 25 24 23 22 21 22 22 22 22 22 23 23 24 26 26 25 24 22 21 20 20 19 18 18 19 21 21 19 19 21 21 20 19 18 16 17 18 20 20 19 19 18 17 18 19 19 20
10 9 9 4 8 6 18 23 21 10 17 26 20 14 9 12 15 14 26 26 17 19 24 23 20 18 16 14 14 17 21 25 21 12 9 13 17 20 22 20 21 22 22 24 24 24 25 25 25 23 23 21 20 20 20 21 21 21 21 21 22 22 23 24 25 25 25 24 23 22 22 21 20 19 20 22 23 21 22 23 22 21 21 19 17 17 19 20 21 20 19 18 18 19 20 20 21
8 7 5 5 8 11 13 15 20 9 14 20 16 12 11 15 20 16 24 27 19 18 22 26 23 20 18 17 18 19 22 25 21 21 17 17 18 21 22 21 22 23 24 24 24 24 25 24 23 21 20 18 18 19 20 20 21 21 21 21 21 21 22 23 24 24 24 25 25 24 23 22 22 21 22 23 24 24 24 25 24 23 22 21 19 19 19 19 20 20 21 20 19 19 20 21 22
12 11 6 7 11 12 10 11 18 11 11 18 14 14 15 18 23 22 27 30 24 19 21 25 25 23 21 21 21 21 24 26 25 24 22 20 20 22 23 22 23 24 24 24 24 24 24 23 21 20 19 18 18 19 19 20 21 21 21 21 22 22 22 22 23 24 23 24 25 26 25 24 24 23 24 24 25 26 26 26 26 26 24 23 22 21 20 19 20 21 22 21 20 20 20 21 22
19 17 10 11 11 12 12 12 17 13 7 11 14 12 12 15 19 17 19 25 24 19 20 22 25 26 23 21 22 23 25 25 25 25 24 23 21 22 23 22 22 23 23 24 24 23 23 22 21 21 20 19 19 19 20 21 21 22 22 22 22 22 23 23 23 23 23 24 25 26 26 26 25 26 26 26 27 27 27 27 27 28 26 25 24 22 21 21 21 21 22 22 21 21 22 21 22
17 16 9 9 9 9 12 13 16 17 12 10 10 9 13 19 17 13 15 21 22 19 19 20 24 27 26 24 23 24 25 25 26 26 25 26 23 23 25 22 20 20 22 23 23 22 22 22 21 21 20 19 19 19 20 20 21 22 22 22 22 22 23 24 24 23 24 24 24 25 26 27 27 27 28 28 28 28 29 28 28 28 28 27 25 23 23 22 22 23 23 23 22 23 22 22 23
18 17 11 8 7 7 14 17 14 17 19 17 14 12 15 19 18 17 16 14 15 15 16 18 21 24 27 27 26 26 26 25 26 26 27 27 25 25 26 21 17 18 20 21 21 21 21 22 22 21 20 20 20 19 19 19 20 20 21 22 22 22 23 23 24 24 24 24 24 25 26 27 28 28 29 29 29 29 29 29 29 29 28 27 26 25 24 24 24 24 23 24 23 23 24 23 23
18 18 15 12 9 8 15 21 17 17 17 14 14 14 13 16 19 23 22 17 18 19 18 20 22 22 24 27 29 30 29 26 26 26 27 27 25 25 25 21 17 17 18 19 20 21 21 22 23 22 21 20 20 19 19 19 19 19 20 21 21 21 22 22 23 24 24 24 25 25 26 27 28 28 29 29 29 29 29 29 29 29 28 27 26 25 24 24 24 24 24 24 24 24 25 25 23
18 17 16 13 10 10 15 22 23 25 24 18 16 13 14 17 16 20 25 25 24 22 20 21 23 23 23 26 31 33 32 29 27 26 26 26 25 25 26 24 19 16 18 19 20 21 22 23 23 22 22 21 20 20 19 19 19 19 19 20 21 21 21 22 23 23 24 24 25 25 26 26 27 28 28 29 29 29 29 28 29 29 28 27 26 25 24 24 23 24 24 24 24 24 25 25 24
19 18 18 16 13 11 15 23 27 27 25 20 17 17 16 17 15 15 20 24 25 24 24 23 23 23 22 25 29 31 32 31 28 26 27 27 25 24 25 25 22 18 17 18 19 21 23 24 24 24 23 23 22 21 20 20 20 20 20 21 21 21 21 22 22 23 23 24 24 25 25 26 26 27 28 28 29 29 28 28 28 28 27 26 25 24 24 23 23 23 23 24 24 25 25 25 24
19 19 19 20 20 18 18 22 25 22 18 15 16 18 16 18 18 15 15 20 24 25 24 23 23 23 22 23 27 29 31 32 27 25 27 27 25 24 23 24 23 19 17 18 20 22 23 25 26 26 26 25 23 22 21 21 21 20 20 21 22 22 22 22 22 23 23 23 24 24 24 25 25 26 26 27 27 28 28 28 27 27 27 25 24 23 23 22 22 22 23 24 25 25 26 26 25
19 20 20 22 25 26 24 22 23 22 17 16 20 21 18 16 14 12 14 16 20 23 22 20 22 23 22 23 25 27 29 31 28 25 25 25 23 22 21 22 22 19 17 18 20 22 24 25 27 28 28 27 26 24 22 23 22 21 20 21 21 22 22 22 22 22 23 23 23 23 23 24 25 25 25 25 26 26 27 27 27 26 26 25 24 23 22 22 21 22 22 23 24 24 25 26 25
20 21 22 24 24 24 26 25 25 25 22 22 25 25 23 20 15 14 17 16 19 25 23 20 20 22 23 24 25 26 28 31 32 28 25 24 22 20 19 20 22 21 19 18 20 23 24 26 28 29 30 30 28 25 23 24 24 22 22 22 22 22 22 21 21 22 22 22 22 22 23 23 23 24 24 24 24 24 25 25 25 26 25 23 23 22 22 21 21 21 21 23 24 24 25 25 24
20 22 22 23 22 21 24 24 23 25 26 26 26 26 26 25 19 17 19 20 23 27 25 21 19 19 21 22 23 26 27 29 30 27 25 26 25 21 19 21 22 22 21 19 20 23 26 28 29 30 31 32 31 28 26 26 26 25 25 24 22 22 21 21 20 20 20 20 20 21 22 22 22 22 22 22 22 22 22 22 23 23 24 23 22 22 21 21 20 20 21 22 23 24 25 25 24
19 21 20 19 19 19 21 22 22 23 25 25 24 23 24 24 22 19 21 22 24 24 22 21 22 20 20 22 23 25 25 24 26 26 28 29 27 22 21 22 22 22 23 22 21 24 27 29 30 31 32 33 33 31 28 27 28 28 27 25 22 21 21 20 19 19 18 18 19 19 20 21 22 22 21 21 21 21 21 21 21 21 22 22 21 21 21 21 20 20 20 21 22 23 24 25 24
19 20 18 17 19 19 21 22 22 23 25 24 21 21 22 23 22 20 19 21 23 21 19 23 26 23 24 26 26 25 25 26 27 28 29 27 24 24 24 24 23 23 24 25 26 26 29 31 31 32 33 35 35 33 30 29 29 29 28 25 22 20 20 19 18 18 17 17 18 18 19 19 20 20 20 20 20 20 20 20 20 20 21 21 21 21 20 20 20 20 20 21 22 23 24 24 24
18 19 18 18 19 21 23 22 23 24 24 22 19 19 21 22 21 19 19 20 22 21 20 24 25 24 27 26 22 22 25 26 27 29 30 27 25 28 29 28 27 27 26 27 28 30 32 33 33 34 34 35 36 36 33 31 31 30 28 24 22 20 19 18 18 18 17 18 18 18 18 18 18 19 19 19 19 20 20 20 20 20 20 20 20 20 20 20 20 20 20 20 21 22 23 23 23
19 19 18 20 21 22 23 23 23 23 21 20 19 18 20 21 19 18 20 23 23 23 23 23 24 26 26 23 21 24 26 27 29 31 31 27 27 31 32 32 32 32 29 28 30 33 34 35 35 36 36 36 37 37 35 33 31 29 27 24 22 20 18 17 17 17 17 17 18 18 18 18 18 18 18 18 18 18 19 19 19 19 19 19 19 20 20 20 20 20 20 20 21 21 21 22 22
19 18 18 21 23 22 21 20 19 17 17 17 18 18 18 20 19 15 19 24 24 24 24 24 26 27 25 24 25 27 28 27 29 29 27 26 29 31 31 33 35 34 33 32 32 33 35 36 37 38 37 37 38 38 36 34 31 28 26 24 22 21 20 17 16 17 17 17 18 18 18 18 18 18 18 17 17 17 17 17 17 17 17 18 19 19 19 19 20 20 20 20 20 20 20 21 21
14 14 16 18 20 21 19 16 15 15 15 15 16 16 15 18 20 18 20 24 22 22 22 22 24 25 25 26 27 29 28 27 28 29 28 29 31 31 32 33 35 36 37 35 34 35 36 37 39 40 40 39 39 39 36 34 30 27 25 24 22 22 20 18 17 18 18 19 19 19 18 19 19 19 18 18 18 17 17 16 16 16 16 17 17 18 18 19 19 19 19 19 20 19 19 20 20
11 10 12 14 15 17 17 17 18 19 19 18 17 15 14 15 18 20 22 23 22 23 23 22 23 25 26 26 28 29 27 27 28 29 29 29 29 30 32 33 35 37 38 37 37 38 38 39 40 41 40 38 38 38 35 32 29 26 25 24 22 21 20 18 18 19 20 20 20 20 20 20 20 20 19 19 19 18 18 17 16 15 15 15 16 16 17 17 18 18 18 19 19 19 19 19 19
14 13 12 14 16 18 18 18 20 22 22 22 21 20 18 18 19 20 22 24 25 26 27 27 28 28 29 29 29 29 28 27 28 28 28 28 27 28 29 30 33 35 36 37 38 39 39 39 39 39 38 36 36 36 33 31 28 26 26 24 22 21 20 19 20 21 22 22 21 21 21 21 21 20 20 19 19 19 19 18 18 17 16 15 15 16 16 16 17 17 17 17 18 18 19 19 19
15 13 10 13 17 18 19 19 19 20 21 20 20 21 20 19 20 22 25 26 25 24 26 28 28 27 27 28 27 26 26 27 27 28 29 28 28 28 28 29 30 31 32 34 35 36 36 36 36 36 36 35 35 34 32 30 29 27 26 25 23 22 21 20 21 21 22 23 22 21 21 22 21 21 20 19 19 19 19 18 18 18 17 17 16 16 16 16 16 16 17 17 17 17 17 18 18
15 15 14 14 15 16 17 19 18 19 20 19 19 19 19 19 20 22 25 25 22 21 23 24 24 24 24 24 23 23 24 25 26 27 28 29 29 29 29 28 29 29 30 30 31 32 32 32 32 33 34 35 36 35 32 30 29 28 26 25 24 24 23 21 21 22 22 22 22 22 21 21 21 21 20 20 19 18 18 18 18 18 18 18 18 18 18 17 17 17 17 17 17 17 17 17 17
15 18 20 19 19 19 18 18 18 18 20 20 19 18 17 19 19 20 24 25 23 22 22 22 24 23 20 20 21 22 23 24 26 27 28 29 29 28 28 28 28 28 29 29 30 30 30 30 31 31 32 33 34 35 33 30 27 28 28 28 26 25 23 22 22 22 21 21 22 22 22 21 21 20 20 20 19 18 18 17 17 17 18 18 19 19 19 19 19 19 18 18 18 18 18 18 18
14 16 18 18 20 21 20 21 21 20 21 20 21 20 18 19 21 21 22 23 22 20 20 23 24 19 17 20 23 24 25 25 26 27 28 28 29 29 29 28 28 28 28 29 30 30 30 31 31 32 32 33 33 34 36 33 29 29 29 28 26 25 24 23 23 23 22 21 22 23 23 22 20 20 20 20 19 19 19 18 18 18 18 18 19 19 20 20 21 21 21 21 20 20 20 20 20
19 18 18 17 18 18 19 21 20 21 22 20 20 22 21 22 23 22 22 24 24 22 21 26 26 20 19 24 25 25 26 26 27 28 28 29 30 30 30 29 29 28 28 29 30 31 31 32 33 33 34 35 35 35 36 37 36 33 29 27 27 27 26 24 23 24 24 24 24 23 23 22 21 21 21 21 21 20 20 20 20 20 20 19 19 19 20 20 20 21 21 22 22 23 23 23 23
Wind_Direction
270 269 268 267 266 264 263 263 259 261 261 261 263 257 244 237 230 232 250 255 259 260 253 251 254 259 256 257 256 254 255 248 244 233 236 253 263 266 264 255 253 251 250 252 252 253 256 258 263 266 270 273 277 281 285 288 289 289 289 289 287 285 283 283 283 284 285 284 283 281 279 277 276 276 277 276 275 273 270 268 263 257 251 243 232 228 227 228 235 238 232 226 220 215 212 208 207
270 269 268 267 266 264 262 262 259 259 260 259 257 261 247 231 244 238 248 259 262 257 253 254 256 256 255 256 256 252 253 252 249 243 244 250 257 263 262 255 251 248 250 253 252 253 256 260 264 267 270 273 278 282 287 289 290 290 290 290 288 286 284 283 282 281 282 282 281 280 278 277 276 277 277 276 275 273 269 265 262 257 252 246 233 227 226 226 232 238 233 225 221 217 214 210 207
271 270 269 267 266 264 262 261 257 255 258 255 248 292 297 243 259 260 255 248 246 253 258 262 256 252 250 249 251 251 251 250 251 251 250 250 254 259 257 255 253 250 253 254 253 254 257 261 265 267 270 274 279 284 288 290 290 290 291 290 288 286 284 282 280 279 280 280 280 279 278 277 278 278 277 277 274 272 267 261 258 255 249 244 235 227 225 225 229 239 240 229 223 218 215 212 208
271 271 269 268 265 263 262 259 256 253 252 248 233 336 260 231 253 248 241 242 245 255 265 264 254 250 249 248 251 255 255 251 252 253 251 252 255 256 254 255 255 252 252 253 254 255 259 263 266 269 271 276 281 286 289 290 290 291 291 289 287 285 284 281 279 278 278 279 279 278 279 279 279 278 277 276 274 270 265 258 255 253 246 239 234 229 226 226 228 237 244 239 229 221 217 214 210
270 270 269 268 264 263 263 261 258 254 250 238 194 190 227 215 227 231 238 248 251 258 263 258 255 253 252 251 253 254 255 252 252 252 250 251 253 253 253 254 252 251 251 252 254 257 260 264 267 269 273 278 283 287 289 290 291 291 290 288 286 284 282 280 278 277 277 277 278 278 278 279 279 277 275 274 272 267 262 256 252 250 246 239 234 230 228 227 228 235 243 244 237 227 220 216 212
269 268 268 267 264 265 263 261 258 254 250 233 198 204 253 241 235 237 245 252 254 262 266 260 254 251 252 252 255 254 252 252 252 252 250 249 251 252 252 252 251 251 251 252 256 258 262 264 266 269 274 280 284 287 289 290 291 289 288 286 284 283 282 279 276 276 276 276 277 277 277 278 278 276 274 272 270 263 257 255 251 248 248 243 237 233 231 229 229 235 242 245 242 234 226 219 215
266 266 266 265 264 264 260 258 257 252 245 238 210 201 263 254 242 241 244 253 258 264 266 258 249 248 253 253 254 255 253 253 254 254 254 253 252 251 251 251 251 250 252 254 256 258 261 264 266 271 276 280 285 287 288 289 289 288 287 285 284 283 281 278 275 275 275 275 276 276 277 277 277 276 273 270 266 259 252 251 250 248 247 245 242 238 234 232 231 233 240 245 245 240 234 226 220
265 264 264 263 262 262 260 259 256 252 235 228 222 210 239 248 248 247 241 250 258 261 264 259 250 248 252 254 256 255 253 255 255 255 256 254 251 249 249 249 250 251 253 254 255 258 261 264 268 272 277 281 285 287 288 287 287 286 285 285 284 283 281 277 274 274 274 275 275 276 276 277 276 275 272 269 265 257 251 249 249 246 245 244 244 242 239 236 233 234 238 243 244 242 238 231 225
263 262 262 260 260 260 259 259 255 254 236 221 232 229 237 242 248 253 248 250 257 260 266 263 253 251 252 253 256 256 256 255 256 256 253 251 250 250 250 249 250 252 253 253 255 259 261 265 269 274 278 282 286 287 287 286 284 284 285 285 285 284 280 277 274 273 273 273 274 275 275 276 275 274 272 270 266 257 249 248 248 246 244 243 244 246 245 242 238 237 238 241 244 243 240 235 229
261 259 259 258 258 260 258 259 257 257 249 229 243 247 244 244 245 252 256 253 258 261 264 261 253 251 253 252 255 258 257 256 256 256 254 252 251 249 249 250 251 253 253 253 256 259 262 266 271 276 280 283 286 287 285 283 282 283 285 286 285 283 279 276 274 272 272 272 273 274 275 275 274 275 275 273 268 257 247 246 246 246 244 245 246 248 249 246 243 239 239 240 243 243 242 238 232
259 257 257 256 255 257 256 257 253 263 307 274 248 249 250 254 252 253 260 259 258 258 259 258 252 249 252 253 255 256 256 262 261 254 254 254 248 246 249 250 251 252 252 254 257 260 263 269 273 277 281 284 285 285 283 281 280 282 284 285 284 282 279 276 275 274 273 272 273 274 274 274 275 276 277 275 270 258 248 247 248 249 249 250 252 253 252 249 245 241 240 240 242 242 241 240 235
256 256 256 255 253 253 251 250 242 241 324 268 242 247 254 262 264 261 259 257 253 253 256 259 255 251 254 256 257 259 260 265 260 251 251 249 247 251 250 248 249 249 251 255 259 262 267 271 276 279 282 283 283 283 282 281 281 282 283 284 283 281 280 278 276 275 274 274 273 274 273 273 274 275 275 273 268 259 251 250 251 254 256 258 258 259 258 252 246 242 240 240 241 242 242 240 237
255 255 254 252 250 248 243 239 234 233 240 244 245 252 259 263 268 266 256 251 247 249 254 258 257 253 252 254 258 261 264 258 248 250 252 247 248 250 247 246 248 250 254 257 260 264 269 274 278 280 281 281 281 282 282 283 282 283 283 283 282 281 280 279 277 276 276 274 273 273 272 272 273 274 272 269 264 257 251 251 253 256 259 262 262 261 260 256 248 241 239 239 239 240 241 240 238
254 252 252 252 248 244 243 234 228 237 224 239 254 257 262 263 265 263 258 252 247 246 253 259 259 255 250 251 256 256 258 254 246 251 253 249 246 244 246 248 248 252 256 259 262 267 272 276 278 279 281 281 281 282 282 283 283 284 284 284 283 281 280 280 279 278 277 276 275 274 272 273 274 273 269 265 260 254 250 251 253 256 260 263 263 262 261 257 249 241 237 237 237 237 239 239 238
253 250 249 251 250 245 244 234 230 240 224 240 250 251 259 264 266 264 259 255 250 245 254 260 255 251 250 250 253 251 251 254 253 252 248 248 247 245 249 249 251 254 256 260 265 269 273 275 277 279 281 282 282 283 284 284 284 285 284 283 282 281 280 279 279 278 277 277 276 274 273 273 273 271 266 260 256 253 251 251 253 256 259 262 264 263 262 259 251 241 235 234 234 235 236 237 237
249 248 248 248 250 247 243 237 242 252 241 250 252 249 258 261 262 264 259 252 249 239 241 254 252 249 249 248 251 250 249 253 255 253 250 254 254 251 254 255 256 256 257 261 265 269 272 274 277 280 282 284 284 284 284 285 285 285 283 281 281 280 279 278 277 275 275 274 273 272 272 271 271 270 265 260 256 254 254 254 254 256 259 262 264 264 262 260 254 242 234 233 233 234 234 235 235
251 249 250 248 247 244 240 233 236 259 250 259 263 252 254 255 259 268 264 250 248 243 241 249 253 255 253 249 250 251 251 252 252 253 253 256 254 254 258 258 257 257 261 264 266 270 272 276 279 281 282 283 285 286 285 285 285 284 282 280 279 279 278 277 276 273 271 268 268 271 271 268 268 269 267 263 258 257 256 255 255 256 258 260 261 262 261 259 254 242 234 234 234 234 234 234 233
255 252 252 249 246 241 241 237 241 259 243 237 257 253 252 253 260 271 265 252 248 247 247 250 251 254 256 253 256 257 255 255 252 253 253 250 249 252 255 256 257 260 265 268 270 272 273 276 279 281 282 282 285 287 287 286 285 283 280 277 276 277 279 278 274 269 267 265 267 272 272 268 266 266 264 261 259 258 256 255 256 255 256 258 258 258 259 257 252 243 235 235 236 234 233 233 233
254 254 254 249 248 241 231 233 244 245 234 219 229 246 254 257 264 269 265 258 251 249 251 255 250 249 255 257 261 260 255 255 255 257 254 248 249 252 253 255 259 262 265 268 271 274 277 279 281 281 282 284 286 288 288 287 284 281 279 278 278 278 278 276 272 269 266 263 266 271 270 269 267 262 256 255 257 257 255 255 256 257 256 254 253 255 257 256 252 245 239 237 239 241 235 233 235
251 253 256 252 252 246 227 232 237 232 231 229 225 242 264 273 273 269 268 266 257 254 254 260 254 247 255 258 257 256 254 256 258 258 252 247 249 251 252 253 256 262 266 270 273 277 281 284 283 281 282 284 286 288 288 287 285 283 281 281 280 276 274 271 269 269 269 266 266 268 267 268 267 260 254 254 256 255 253 254 255 256 253 250 250 252 255 256 254 248 244 241 243 249 244 237 237
253 253 256 253 241 233 222 234 244 237 241 247 238 251 272 276 271 269 271 268 262 258 254 260 258 249 254 257 255 256 257 259 259 254 247 243 247 249 249 251 256 262 267 271 274 277 281 284 283 281 282 283 285 287 288 288 287 284 282 281 278 275 272 269 268 268 269 269 268 267 267 268 266 261 258 255 255 254 251 250 251 251 248 246 247 249 253 255 255 253 249 246 244 248 248 242 240
254 253 254 248 239 237 231 236 253 263 266 267 261 264 268 264 268 274 272 266 262 257 245 247 254 248 247 250 252 256 257 259 257 248 242 243 247 247 247 252 258 261 266 272 275 278 281 282 282 281 282 282 283 284 285 285 284 282 281 279 277 275 269 267 272 271 267 269 271 270 267 267 268 268 265 258 255 254 250 247 246 248 248 247 248 247 250 252 254 254 251 247 244 245 247 246 244
256 253 253 249 245 249 251 250 259 271 274 270 264 261 261 261 268 273 265 262 260 255 246 244 252 251 250 252 253 256 258 259 250 236 232 238 241 244 249 256 260 264 270 274 276 280 282 281 282 284 283 281 281 281 283 283 283 283 282 281 278 275 270 268 273 273 270 270 270 269 268 266 267 267 265 259 253 251 250 251 251 251 250 249 249 247 247 249 251 252 251 249 247 246 248 249 248
258 256 253 249 245 247 255 261 264 271 273 266 260 259 262 264 265 265 263 265 259 255 252 248 252 255 261 265 260 257 258 257 242 224 220 228 235 246 255 258 260 268 274 275 278 281 282 283 285 287 286 285 282 280 282 282 283 283 282 282 279 276 272 269 271 271 272 270 265 265 265 263 264 264 263 259 254 254 256 259 257 255 253 249 249 248 247 247 247 249 250 250 250 249 249 249 249
260 256 250 247 247 248 253 261 267 269 267 262 260 261 263 263 262 263 268 269 260 256 252 249 253 259 260 259 260 258 254 254 241 219 213 226 237 248 252 254 261 270 276 279 283 284 286 288 289 290 289 289 288 284 282 281 282 283 282 282 280 277 273 271 270 270 272 271 266 267 266 263 262 263 263 261 261 265 266 261 256 256 257 250 247 248 245 244 246 248 248 249 250 251 251 250 249
256 250 248 249 251 253 253 258 263 264 265 265 264 262 265 264 262 266 267 263 260 258 254 254 259 260 258 254 256 258 254 255 243 218 214 228 240 247 248 255 264 273 280 284 287 289 290 290 292 293 290 289 288 287 284 280 280 280 281 282 281 278 275 273 273 273 273 269 265 266 266 264 262 262 265 267 268 271 274 266 255 254 255 252 251 246 241 241 244 245 247 250 251 251 252 251 249
253 252 250 251 254 257 256 256 258 261 265 266 263 263 264 262 260 264 263 258 258 261 262 265 262 256 258 255 253 255 253 251 238 219 218 228 237 245 252 260 269 277 283 286 288 291 292 289 290 291 291 290 289 290 288 284 280 279 279 280 280 277 275 275 275 274 271 265 261 260 262 264 266 266 267 271 273 275 276 272 263 257 254 257 256 249 246 245 241 240 245 250 253 253 252 251 250
254 255 252 252 253 256 257 256 257 261 264 264 262 263 262 261 264 263 260 259 260 263 267 269 266 263 262 258 257 252 248 247 233 224 229 233 239 250 258 265 273 280 284 286 288 289 288 287 287 288 290 292 293 296 295 289 283 281 282 283 282 282 280 278 275 272 267 263 260 260 263 268 271 270 270 272 273 274 273 274 272 266 260 262 262 257 254 246 237 238 246 251 254 256 256 253 251
256 258 254 253 253 255 258 259 259 259 262 262 257 258 261 261 263 262 261 263 265 267 270 272 273 274 266 259 260 254 255 249 224 217 233 240 246 256 262 269 276 280 283 287 289 289 288 287 287 288 290 293 296 299 298 292 286 283 285 287 287 286 285 282 278 272 267 265 263 263 266 269 272 271 271 271 273 272 271 274 273 270 267 266 266 263 256 245 240 244 252 255 255 257 258 256 254
258 259 257 258 258 262 263 258 256 260 262 260 255 255 260 265 265 262 262 262 265 268 268 271 272 266 261 260 260 262 263 234 206 206 231 242 252 259 265 272 276 280 284 287 289 289 289 288 288 289 291 293 295 297 298 294 290 288 288 289 289 288 288 288 288 282 274 270 266 265 267 269 271 272 272 272 274 275 273 273 271 269 269 269 270 267 261 257 257 261 262 263 263 261 262 260 258
258 259 260 263 268 279 272 261 258 261 260 257 257 257 254 263 267 259 260 260 264 269 263 260 265 260 259 263 258 258 252 214 200 211 225 238 255 260 265 271 275 281 284 285 286 287 288 288 289 290 290 291 292 295 298 296 293 292 291 291 290 291 291 292 294 292 287 284 277 273 272 271 272 274 275 275 278 280 278 275 274 272 272 272 274 273 270 268 267 267 265 266 266 265 267 266 263
256 260 261 263 330 276 263 270 274 262 259 260 257 253 240 238 243 251 264 266 265 273 271 262 262 263 263 268 259 250 243 214 201 210 219 238 254 256 261 269 276 281 282 284 285 286 288 288 290 290 289 288 287 289 293 294 293 292 291 289 289 289 288 290 291 291 291 290 286 281 277 274 273 273 274 275 277 278 276 273 274 277 277 276 277 279 279 275 271 270 268 265 265 265 267 266 266
258 259 246 175 95 241 259 280 286 255 248 264 256 230 216 235 236 249 265 264 259 269 277 276 272 270 265 262 255 245 236 214 209 243 251 237 249 253 258 268 277 280 281 284 284 285 287 288 289 289 288 284 280 283 286 287 287 287 287 285 285 284 283 285 285 286 287 287 284 280 277 274 272 272 271 274 276 276 277 276 275 278 280 281 284 285 283 280 277 276 272 266 265 266 265 265 265
283 275 256 171 158 236 259 277 279 243 214 251 254 203 188 230 236 246 262 262 261 264 271 277 275 270 264 259 252 242 234 230 249 280 264 241 248 249 255 268 275 278 280 282 283 284 285 286 287 287 285 280 275 277 280 282 282 282 283 282 282 281 280 279 279 279 281 281 279 276 273 271 270 270 271 274 277 279 281 282 282 285 286 288 290 287 284 281 279 278 276 270 267 269 269 268 266
230 223 247 226 189 215 239 250 263 262 222 232 229 197 194 225 242 253 262 261 261 262 264 269 270 265 260 262 258 249 248 251 266 277 260 255 261 250 253 266 271 276 279 280 283 283 284 284 284 283 281 278 276 277 279 281 282 281 282 282 282 281 280 277 276 276 276 276 275 273 272 270 269 269 270 273 277 279 281 282 285 288 288 288 287 286 284 282 280 279 276 270 268 270 271 270 269
209 194 207 235 214 210 223 235 246 259 256 220 208 195 199 231 254 257 251 257 261 254 253 258 264 267 264 266 267 264 264 263 265 266 260 268 274 254 251 263 269 275 278 281 283 281 282 282 280 279 278 278 279 279 282 283 284 284 282 282 282 283 282 280 277 275 274 274 274 273 272 271 270 270 271 273 275 277 279 281 283 285 284 283 283 283 283 281 278 277 274 271 271 273 272 270 270
205 199 205 231 229 214 227 244 250 255 254 232 217 201 214 229 243 250 251 264 263 245 242 250 258 267 269 266 266 268 267 264 264 267 267 273 276 260 256 264 268 274 279 280 280 279 280 280 278 278 279 280 281 282 285 287 289 289 286 283 281 282 283 282 280 278 276 275 274 273 272 271 271 271 272 273 274 276 278 280 280 280 281 281 281 280 279 278 276 275 273 273 274 274 272 270 269
206 217 222 214 205 201 234 242 247 261 258 252 242 210 222 234 224 230 247 259 255 246 251 259 261 265 268 267 264 260 259 261 265 266 264 268 271 265 264 267 265 272 278 276 277 279 279 280 279 280 281 282 284 287 289 290 292 293 291 287 283 281 281 281 281 280 279 277 276 275 274 273 272 272 272 273 275 276 277 278 278 277 278 279 279 278 276 275 275 275 273 272 272 271 271 269 266
216 229 229 213 190 193 237 245 244 262 265 255 236 201 210 241 230 225 231 236 251 263 266 266 269 265 263 266 265 262 260 260 262 263 264 265 267 267 267 268 265 268 273 274 277 279 279 280 280 281 283 284 287 289 291 292 292 294 294 291 287 284 281 279 279 279 279 279 278 277 276 275 275 274 274 275 275 275 275 275 275 275 275 275 276 276 275 274 273 272 270 269 269 268 268 267 265
228 235 233 212 189 204 242 254 247 247 256 256 251 236 221 230 235 232 237 246 258 268 270 266 267 264 261 263 262 264 267 264 263 267 270 267 265 264 265 267 265 263 268 273 277 279 280 280 281 282 284 286 289 291 293 294 293 294 295 294 290 286 283 280 278 277 277 277 277 277 277 276 276 276 275 275 274 274 273 273 272 273 272 273 273 274 273 271 269 268 268 268 266 265 266 266 266
234 235 236 218 204 218 238 251 247 238 248 259 257 260 250 242 252 251 250 260 264 265 265 262 263 262 261 262 263 263 265 266 266 267 268 267 264 262 260 261 262 259 264 272 275 278 280 281 283 285 287 288 291 293 295 295 295 294 295 295 293 289 285 282 279 277 276 274 274 274 275 275 275 275 273 273 272 272 272 271 270 271 271 271 271 270 270 268 266 265 265 266 265 264 265 265 266
239 237 239 230 224 228 227 242 251 242 246 262 257 257 259 256 263 270 264 263 263 261 259 257 258 259 257 260 264 264 264 267 268 267 269 269 265 262 259 259 261 256 256 267 273 276 280 283 286 287 288 290 292 294 295 296 297 295 295 296 294 291 287 283 280 277 275 273 273 273 274 275 275 275 274 273 271 270 270 270 269 269 269 269 268 267 266 266 265 263 264 264 263 264 264 264 264
241 240 240 237 234 237 239 245 254 253 252 261 260 256 253 253 257 265 260 252 255 258 257 256 253 253 254 254 260 265 267 269 270 268 269 268 264 261 256 255 259 257 253 262 270 275 280 283 285 287 289 291 292 294 296 298 298 297 296 297 295 293 288 284 281 277 275 273 272 273 274 275 276 276 276 274 273 271 270 269 268 268 268 267 266 265 264 263 263 263 263 264 264 264 264 264 264
241 242 242 243 240 240 246 250 252 256 256 254 257 258 258 259 251 248 251 241 245 257 262 260 253 251 252 251 255 261 265 268 272 272 268 265 263 261 256 248 252 258 260 264 270 274 279 280 283 286 288 291 292 294 297 299 299 299 299 299 296 291 286 282 279 277 275 273 272 273 273 274 275 274 274 274 273 272 270 268 267 267 267 266 265 264 264 263 262 262 263 264 265 265 265 265 265
240 242 244 247 248 244 247 252 253 255 255 253 256 260 262 263 256 248 250 242 242 256 265 262 256 255 256 256 255 256 261 266 271 273 271 271 270 270 266 255 253 258 260 265 269 271 276 278 281 285 287 289 291 294 298 299 299 300 301 299 294 288 282 278 276 275 275 274 274 274 274 274 274 274 273 273 273 272 271 270 269 268 268 267 265 263 263 263 263 262 262 263 265 266 266 267 266
243 247 252 252 251 250 250 253 253 252 255 256 257 260 263 264 260 247 246 248 247 255 263 262 259 257 256 258 256 257 264 267 266 266 268 272 275 275 271 265 262 253 249 261 271 272 275 277 278 282 284 286 289 293 296 297 298 299 299 295 288 281 277 274 272 273 273 274 275 276 275 275 275 275 274 273 273 272 272 272 271 270 269 268 267 265 264 264 264 263 263 263 264 266 267 268 268
252 253 255 252 248 251 253 253 253 252 256 259 259 259 259 261 260 251 245 249 253 256 254 253 257 257 253 256 258 260 263 265 268 269 265 264 266 267 265 263 257 247 249 266 274 273 274 275 276 278 280 283 287 290 293 295 296 296 293 288 281 275 271 269 269 270 271 272 274 275 276 276 276 276 276 275 273 273 272 271 271 271 270 269 269 268 267 267 267 267 265 264 264 265 266 267 268
255 254 252 249 249 252 254 254 253 253 257 262 261 257 254 252 252 251 245 243 253 260 252 249 256 255 253 256 261 262 262 264 269 270 266 262 261 262 262 259 254 255 265 272 273 272 273 273 273 275 278 282 285 287 289 291 292 291 286 280 274 270 267 267 268 269 270 271 273 274 275 275 277 277 277 277 275 274 274 272 271 271 271 270 269 268 269 269 271 270 269 268 267 267 266 267 268
249 250 250 249 248 251 253 253 254 253 254 258 258 250 246 246 245 248 249 245 248 255 253 254 256 255 258 266 268 266 265 264 263 265 268 269 266 265 266 266 265 268 271 268 266 269 271 272 273 274 277 279 282 284 286 287 288 285 278 272 269 267 267 268 270 272 272 272 273 274 274 274 274 275 276 276 275 274 274 274 273 273 272 273 271 270 269 269 270 271 272 272 271 270 269 269 269
250 244 243 245 245 248 252 255 256 256 253 251 249 244 242 248 249 243 246 247 247 252 256 258 259 261 267 269 266 265 266 266 266 270 273 270 265 266 267 268 269 269 267 263 262 264 266 269 272 273 275 277 278 280 282 284 283 277 269 265 265 266 268 268 271 273 273 273 274 274 274 273 272 273 274 275 275 273 273 273 274 274 274 274 273 272 271 270 270 271 271 272 272 272 271 270 270
255 242 242 249 247 245 248 251 249 252 255 248 245 247 245 248 247 237 242 253 258 261 262 262 264 268 269 265 265 268 269 271 273 274 271 265 262 263 262 261 263 265 265 264 263 262 263 265 268 270 272 273 273 275 277 278 276 270 263 261 262 265 266 268 271 272 271 271 272 272 274 274 273 273 273 274 274 273 273 272 272 273 273 273 272 272 272 272 272 273 273 273 273 273 272 271 270
260 244 239 253 253 246 247 249 245 245 249 248 249 253 249 249 252 249 255 265 266 265 266 267 267 267 267 266 268 270 272 271 270 270 269 266 262 259 258 257 259 261 263 264 262 261 261 262 263 266 268 268 268 271 273 272 269 263 260 259 261 264 265 267 270 271 270 270 270 271 273 274 274 274 273 274 273 273 272 271 270 269 269 269 269 269 269 271 272 274 276 277 277 276 275 274 272
252 253 243 245 246 244 244 248 249 249 251 252 256 262 262 263 265 263 263 267 268 267 268 267 266 266 266 266 268 271 272 270 268 269 270 267 264 261 260 259 258 259 260 260 260 259 259 259 260 263 265 265 265 267 268 266 263 259 257 258 260 263 266 268 269 271 272 272 271 272 272 273 274 274 274 274 274 272 271 270 268 267 265 265 266 265 265 266 268 271 273 276 278 279 279 278 276
246 252 252 250 248 244 243 248 251 254 255 254 256 262 265 265 265 268 269 269 270 270 266 266 266 266 267 267 268 270 270 269 269 269 268 267 266 266 264 261 260 259 258 257 257 257 257 257 258 260 262 263 262 262 260 259 259 257 256 256 258 261 265 268 270 273 273 273 272 272 273 274 274 274 274 274 274 272 271 269 267 265 263 262 261 261 261 261 261 263 266 268 271 274 276 277 277
247 244 246 255 257 248 246 253 257 257 258 257 257 260 264 263 258 261 266 267 269 266 263 266 270 270 271 270 268 268 268 269 269 267 268 267 266 265 264 262 261 260 258 257 256 255 255 256 256 258 261 262 259 255 251 251 255 256 256 255 255 260 264 267 273 276 275 273 272 273 273 274 275 274 273 273 272 271 269 268 267 267 266 264 262 261 259 258 257 257 258 261 263 266 268 271 273
249 248 246 250 255 254 255 258 259 260 260 261 261 259 261 262 256 254 259 263 264 258 256 264 271 273 275 273 270 271 272 271 270 269 268 267 266 265 264 262 261 259 258 256 255 253 253 253 254 256 259 261 259 252 246 248 253 255 255 253 254 258 262 265 271 274 273 271 272 275 274 274 274 273 272 271 270 268 267 267 268 268 269 269 269 268 265 262 259 257 255 256 258 260 262 264 266
234 241 248 250 255 258 256 252 252 256 258 260 261 259 257 258 259 260 261 261 261 256 252 257 264 269 275 276 276 277 276 274 273 271 269 268 267 267 266 264 261 258 256 253 252 250 249 249 250 252 255 257 256 251 246 251 261 261 255 254 256 258 259 264 269 272 272 269 269 273 273 272 271 268 267 266 266 266 266 266 268 270 270 271 272 272 271 268 265 262 260 257 256 256 257 259 260
235 240 250 246 246 253 253 251 251 252 253 253 254 258 257 254 257 262 264 264 267 267 258 255 261 271 281 281 278 277 275 273 271 269 268 268 268 268 267 265 261 257 253 251 249 249 248 247 248 250 252 254 255 254 252 256 262 263 260 257 256 258 261 264 269 273 273 270 268 268 270 271 270 266 263 261 262 264 265 266 267 269 270 271 271 271 271 270 269 267 265 263 260 259 257 257 257